• In Latvia
  • List of Countries
  • For 7 days
  • Water Temperature
  • Satellite Maps
  • Weather Map
  • Weather Widgets
  • user-avatar
    Login

    Hourly Weather Gagra

    Today, 22 September, Saturday

    Time Temperature Precipitation Wind Pressure Humidity
    00:00 +20°C° 0 mm 1 mps 736 mmHg 66%
    01:00 +20°C° 0 mm 1 mps 736 mmHg 67%
    02:00 +20°C° 0 mm 1 mps 736 mmHg 69%
    03:00 +20°C° 0 mm 1 mps 735 mmHg 72%
    04:00 +20°C° 0 mm 1 mps 735 mmHg 72%
    05:00 +20°C° 0 mm 1 mps 735 mmHg 71%
    06:00 +20°C° 0 mm 1 mps 735 mmHg 70%
    07:00 +22°C° 0 mm 1 mps 735 mmHg 65%
    08:00 +24°C° 0 mm 1 mps 736 mmHg 59%
    09:00 +27°C° 0 mm 1 mps 736 mmHg 53%
    10:00 +28°C° 0 mm 1 mps 736 mmHg 51%
    11:00 +28°C° 0 mm 1 mps 736 mmHg 50%
    12:00 +29°C° 0 mm 2 mps 736 mmHg 48%
    13:00 +29°C° 0.3 mm 2 mps 735 mmHg 52%
    14:00 +28°C° 0.3 mm 2 mps 735 mmHg 56%
    15:00 +28°C° 0.3 mm 3 mps 735 mmHg 61%
    16:00 +26°C° 0.7 mm 2 mps 735 mmHg 68%
    17:00 +24°C° 0.7 mm 2 mps 735 mmHg 75%
    18:00 +23°C° 0.7 mm 2 mps 735 mmHg 83%
    19:00 +21°C° 0.7 mm 2 mps 735 mmHg 83%
    20:00 +21°C° 0.7 mm 2 mps 735 mmHg 82%
    21:00 +21°C° 0.7 mm 1 mps 735 mmHg 82%
    22:00 +21°C° 0 mm 1 mps 735 mmHg 83%
    23:00 +21°C° 0 mm 1 mps 735 mmHg 84%

    Tomorrow, 23 September, Sunday

    Time Temperature Precipitation Wind Pressure Humidity
    00:00 +21°C° 0 mm 1 mps 735 mmHg 85%
    01:00 +20°C° 0 mm 1 mps 735 mmHg 85%
    02:00 +20°C° 0 mm 1 mps 735 mmHg 85%
    03:00 +20°C° 0 mm 1 mps 735 mmHg 86%
    04:00 +20°C° 0 mm 1 mps 735 mmHg 85%
    05:00 +19°C° 0 mm 1 mps 735 mmHg 84%
    06:00 +19°C° 0 mm 1 mps 735 mmHg 83%
    07:00 +21°C° 0.2 mm 1 mps 735 mmHg 77%
    08:00 +23°C° 0.2 mm 1 mps 736 mmHg 72%
    09:00 +25°C° 0.2 mm 1 mps 736 mmHg 66%
    10:00 +25°C° 0.2 mm 1 mps 736 mmHg 66%
    11:00 +26°C° 0.2 mm 2 mps 736 mmHg 65%
    12:00 +26°C° 0.2 mm 2 mps 736 mmHg 65%
    13:00 +26°C° 0.6 mm 2 mps 736 mmHg 69%
    14:00 +25°C° 0.6 mm 2 mps 736 mmHg 72%
    15:00 +25°C° 0.6 mm 2 mps 736 mmHg 75%
    16:00 +24°C° 0.2 mm 2 mps 736 mmHg 80%
    17:00 +23°C° 0.2 mm 2 mps 736 mmHg 85%
    18:00 +21°C° 0.2 mm 2 mps 736 mmHg 90%
    19:00 +21°C° 0.2 mm 1 mps 737 mmHg 91%
    20:00 +21°C° 0.2 mm 1 mps 737 mmHg 92%
    21:00 +20°C° 0.2 mm 1 mps 737 mmHg 93%
    22:00 +19°C° 0.1 mm 2 mps 737 mmHg 92%
    23:00 +19°C° 0.1 mm 2 mps 737 mmHg 92%

    Day after tomorrow, 24 September, Monday

    Time Temperature Precipitation Wind Pressure Humidity
    00:00 +19°C° 0.1 mm 2 mps 737 mmHg 92%
    01:00 +19°C° 0.1 mm 2 mps 737 mmHg 91%
    02:00 +18°C° 0.1 mm 2 mps 737 mmHg 91%
    03:00 +18°C° 0.1 mm 2 mps 737 mmHg 90%
    04:00 +18°C° 0.1 mm 3 mps 737 mmHg 89%
    05:00 +18°C° 0.1 mm 3 mps 737 mmHg 88%
    06:00 +17°C° 0.1 mm 3 mps 737 mmHg 88%
    07:00 +19°C° 0.1 mm 3 mps 737 mmHg 83%
    08:00 +20°C° 0.1 mm 4 mps 737 mmHg 78%
    09:00 +22°C° 0.1 mm 4 mps 738 mmHg 73%
    10:00 +23°C° 0 mm 4 mps 737 mmHg 69%
    11:00 +25°C° 0 mm 4 mps 737 mmHg 64%
    12:00 +26°C° 0 mm 4 mps 737 mmHg 60%
    13:00 +26°C° 0 mm 4 mps 737 mmHg 60%
    14:00 +26°C° 0 mm 4 mps 737 mmHg 60%
    15:00 +26°C° 0 mm 3 mps 736 mmHg 60%
    16:00 +24°C° 0 mm 3 mps 736 mmHg 69%
    17:00 +23°C° 0 mm 2 mps 736 mmHg 77%
    18:00 +20°C° 0 mm 2 mps 735 mmHg 85%
    19:00 +19°C° 0 mm 2 mps 735 mmHg 84%
    20:00 +19°C° 0 mm 2 mps 735 mmHg 83%
    21:00 +18°C° 0 mm 2 mps 735 mmHg 83%
    22:00 +18°C° 0 mm 3 mps 735 mmHg 78%
    23:00 +18°C° 0 mm 3 mps 734 mmHg 73%

    25 September, Tuesday

    Time Temperature Precipitation Wind Pressure Humidity
    00:00 +18°C° 0 mm 3 mps 734 mmHg 68%
    01:00 +18°C° 0 mm 3 mps 734 mmHg 66%
    02:00 +18°C° 0 mm 3 mps 734 mmHg 64%
    03:00 +18°C° 0 mm 3 mps 734 mmHg 63%
    04:00 +18°C° 0 mm 3 mps 733 mmHg 62%
    05:00 +18°C° 0 mm 3 mps 733 mmHg 61%
    06:00 +18°C° 0 mm 2 mps 733 mmHg 61%
    07:00 +20°C° 0 mm 2 mps 733 mmHg 56%
    08:00 +24°C° 0 mm 2 mps 734 mmHg 52%
    09:00 +26°C° 0 mm 2 mps 734 mmHg 47%
    10:00 +27°C° 0 mm 2 mps 734 mmHg 45%
    11:00 +28°C° 0 mm 2 mps 734 mmHg 44%
    12:00 +29°C° 0 mm 2 mps 734 mmHg 42%
    13:00 +28°C° 0 mm 3 mps 734 mmHg 44%
    14:00 +28°C° 0 mm 3 mps 735 mmHg 46%
    15:00 +27°C° 0 mm 4 mps 735 mmHg 48%
    16:00 +25°C° 0 mm 4 mps 735 mmHg 58%
    17:00 +22°C° 0 mm 5 mps 735 mmHg 68%
    18:00 +20°C° 0 mm 5 mps 736 mmHg 79%
    19:00 +19°C° 0 mm 5 mps 736 mmHg 80%
    20:00 +19°C° 0 mm 5 mps 737 mmHg 81%
    21:00 +17°C° 0 mm 5 mps 737 mmHg 82%
    22:00 +17°C° 0.1 mm 5 mps 737 mmHg 81%
    23:00 +17°C° 0.1 mm 6 mps 737 mmHg 81%

    26 September, Wednesday

    Time Temperature Precipitation Wind Pressure Humidity
    00:00 +17°C° 0.1 mm 6 mps 738 mmHg 81%
    01:00 +16°C° 0.5 mm 6 mps 738 mmHg 82%
    02:00 +16°C° 0.5 mm 6 mps 738 mmHg 83%
    03:00 +16°C° 0.5 mm 5 mps 738 mmHg 83%
    04:00 +15°C° 0.3 mm 5 mps 738 mmHg 83%
    05:00 +15°C° 0.3 mm 5 mps 738 mmHg 83%
    06:00 +14°C° 0.3 mm 4 mps 739 mmHg 83%
    07:00 +15°C° 0.1 mm 4 mps 739 mmHg 80%
    08:00 +15°C° 0.1 mm 4 mps 739 mmHg 76%
    09:00 +15°C° 0.1 mm 4 mps 740 mmHg 73%
    10:00 +17°C° 0.2 mm 4 mps 740 mmHg 71%
    11:00 +17°C° 0.2 mm 4 mps 740 mmHg 68%
    12:00 +18°C° 0.2 mm 4 mps 740 mmHg 66%
    13:00 +18°C° 0.2 mm 4 mps 740 mmHg 67%
    14:00 +17°C° 0.2 mm 3 mps 740 mmHg 68%
    15:00 +17°C° 0.2 mm 3 mps 740 mmHg 69%
    16:00 +17°C° 0.2 mm 3 mps 740 mmHg 72%
    17:00 +16°C° 0.2 mm 3 mps 740 mmHg 75%
    18:00 +14°C° 0.2 mm 3 mps 740 mmHg 78%
    19:00 +14°C° 0.1 mm 3 mps 740 mmHg 79%
    20:00 +14°C° 0.1 mm 3 mps 741 mmHg 80%
    21:00 +15°C° 0.1 mm 2 mps 741 mmHg 81%
    22:00 +14°C° 0 mm 2 mps 741 mmHg 82%
    23:00 +14°C° 0 mm 2 mps 741 mmHg 83%

    27 September, Thursday

    Time Temperature Precipitation Wind Pressure Humidity
    00:00 +14°C° 0 mm 2 mps 741 mmHg 84%
    01:00 +14°C° 0 mm 2 mps 741 mmHg 83%
    02:00 +14°C° 0 mm 2 mps 741 mmHg 83%
    03:00 +14°C° 0 mm 2 mps 741 mmHg 83%
    04:00 +13°C° 0 mm 2 mps 741 mmHg 83%
    05:00 +13°C° 0 mm 2 mps 741 mmHg 83%
    06:00 +13°C° 0 mm 2 mps 741 mmHg 83%
    07:00 +14°C° 0 mm 2 mps 741 mmHg 79%
    08:00 +16°C° 0 mm 2 mps 741 mmHg 75%
    09:00 +17°C° 0 mm 2 mps 741 mmHg 71%
    10:00 +19°C° 0 mm 3 mps 741 mmHg 66%
    11:00 +20°C° 0 mm 3 mps 741 mmHg 61%
    12:00 +21°C° 0 mm 3 mps 740 mmHg 55%
    13:00 +21°C° 0 mm 3 mps 740 mmHg 58%
    14:00 +21°C° 0 mm 2 mps 740 mmHg 60%
    15:00 +20°C° 0 mm 2 mps 740 mmHg 63%
    16:00 +20°C° 0 mm 1 mps 740 mmHg 71%
    17:00 +18°C° 0 mm 1 mps 740 mmHg 79%
    18:00 +16°C° 0 mm 1 mps 739 mmHg 87%
    19:00 +16°C° 0 mm 1 mps 739 mmHg 87%
    20:00 +15°C° 0 mm 1 mps 739 mmHg 87%
    21:00 +14°C° 0 mm 1 mps 740 mmHg 87%
    22:00 +14°C° 0 mm 1 mps 739 mmHg 84%
    23:00 +14°C° 0 mm 2 mps 739 mmHg 82%
    Show more